Weather Roundup
Issued by NWS

Home | Current Version | Previous Version | Text Only | Print | Product List | Glossary On
Versions: 1 2 3 4 5 6 7 8 9 10 11 12 13 14 15 16 17 18 19 20 21 22 23 24 25 26 27 28 29 30 31 32 33 34 35 36 37 38 39 40 41 42 43 44 45 46 47 48 49 50
000
NZUS93 KARX 300810
HRRWXR

CURRENT HOURLY OBSERVATIONS ACROSS
MUCH OF THE UPPER MISSISSIPPI VALLEY
NATIONAL WEATHER SERVICE LA CROSSE WI
300 AM CDT SUN AUG 30 2015


...SOUTHEAST MINNESOTA...


CITY           SKY/WX    TMP DP  RH WIND       PRES   REMARKS
ROCHESTER      CLEAR     58  57  97 S6        30.04S FOG
ROCHESTER/MAYO FAIR      61  61 100 SE3       30.03S
WINONA         CLOUDY    59  59 100 CALM      30.03S
AUSTIN         CLEAR     63  61  94 S5        30.03S
ALBERT LEA     CLOUDY    61  61 100 S3        30.03S FOG
DODGE CENTER   PTCLDY    61  57  88 S6        30.02F
PRESTON        FOG       58  56  95 CALM      30.04F VSB 3/4
OWATONNA       FOG       63  61  94 S5        30.02S VSB 1/2
FARIBAULT      FOG       61  61 100 S7        30.01F VSB 1
$$

...ELSEWHERE IN MINNESOTA...


CITY           SKY/WX    TMP DP  RH WIND       PRES   REMARKS
MINNEAPOLIS    CLOUDY    63  62  97 S6        29.99S FOG
INTNL FALLS    CLEAR     63  61  93 VRB3      29.86F
DULUTH         PTCLDY    62  60  93 SW8       29.95F
RED WING       CLEAR     63  61  94 S7        30.00F
REDWOOD FALLS  CLOUDY    63  62  97 S9        29.97S
MANKATO        CLEAR     59  55  88 S7        30.00S
WORTHINGTON    CLOUDY    61  57  88 SW15      30.01F
FAIRMONT       CLOUDY    63  57  82 S10       30.01F
$$

...SOUTHWEST WISCONSIN...


CITY           SKY/WX    TMP DP  RH WIND       PRES   REMARKS
LA CROSSE      CLEAR     59  58  96 SE3       30.03S
PRAIRIE DU CHI FOG       61  60  95 CALM      30.04S VSB 3/4
BOSCOBEL       CLOUDY    64  62  93 CALM      30.04F
LONE ROCK      CLOUDY    64  62  93 CALM      30.05S
PLATTEVILLE    CLOUDY    65  63  91 E3        30.05S
FORT MC COY    PTCLDY    58  56  94 E3        30.05S
CAMP DOUGLAS   CLOUDY    63  63 100 S3        30.04F
VIROQUA        FAIR      60  60 100 SE3       30.05F
WIS DELLS      FOG       58  56  94 CALM      30.05S VSB 1/4
$$

...ELSEWHERE IN WISCONSIN...


CITY           SKY/WX    TMP DP  RH WIND       PRES   REMARKS
MILWAUKEE      FOG       63  61  93 NE3       30.03F VSB 1
MADISON        CLOUDY    63  61  93 CALM      30.05R FOG
GREEN BAY      FOG       59  58  96 CALM      30.05S VSB<1/4
EAU CLAIRE     CLEAR     60  58  92 S3        30.02S
BLACK RVR FLS  FOG       53  53 100 CALM      30.03F VSB<1/4
MEDFORD        FOG       51  51 100 CALM      30.05S VSB 1/4
WAUSAU         FOG       54  53  97 E3        30.04F VSB 1/4
WIS RAPIDS     FOG       56  54  93 CALM      30.06S VSB 1/4
MARSHFIELD     FOG       57  54  89 SW5       30.05F VSB 1/4
RICE LAKE      CLEAR     58  57  96 CALM      30.03S FOG
$$

...NORTHEAST IOWA...


CITY           SKY/WX    TMP DP  RH WIND       PRES   REMARKS
DECORAH        CLOUDY    61  59  94 CALM      30.04S
MASON CITY     FOG       56  56 100 S5        30.05S VSB 1/4
CHARLES CITY   FOG       59  59 100 S5        30.04F VSB 3/4
OELWEIN        FOG       55  55 100 CALM      30.05S VSB 1/4
$$

...ELSEWHERE IN IOWA...


CITY           SKY/WX    TMP DP  RH WIND       PRES   REMARKS
DES MOINES     PTCLDY    63  59  87 CALM      30.03F
IOWA CITY      CLOUDY    66  65  96 CALM      30.05S
FORT DODGE     MOCLDY    63  59  88 SE3       30.04F
$$

...NORTHERN ILLINOIS...


CITY           SKY/WX    TMP DP  RH WIND       PRES   REMARKS
CHICAGO-OHARE  CLOUDY    65  64  97 N5        30.02F FOG
CHICAGO-MIDWAY CLOUDY    67  64  90 N3        30.02S FOG
MOLINE         FOG       60  59  96 CALM      30.03F VSB 1/4
ROCKFORD       CLOUDY    66  62  87 NE5       30.04F
PEORIA         CLOUDY    71  67  87 NE5       30.01F
$$

NOTE: "FAIR" INDICATES FEW OR NO CLOUDS BELOW 12,000 FEET WITH NO
SIGNIFICANT WEATHER AND/OR OBSTRUCTIONS TO VISIBILITY. WIND
SPEEDS ARE IN MILES-PER-HOUR.



USA.gov is the U.S. government's official web portal to all federal, state and local government web resources and services.